Flag for Saudi Arabia Weather past 2 weeks in Qatif, Saudi Arabia

Now
106 °F

Sunny.


Feels Like: 101 °F
Forecast: 81 / 107 °F
Wind: 5 mph from Southeast

Location: King Fahd International Airport

Current Time: May 30, 2015 at 12:05:08 PM

Latest Report: May 30, 2015 at 11:00 AM


Visibility: 10 mi

Pressure: 29.71 "Hg

Humidity: 13%

Dew point: 45 °F

Location of QatifLocation

Historic Weather in Qatif — Graph

°F

Qatif temperature yesterday

Maximum temperature yesterday: 113 °F (at 1:00 PM)
Minimum temperature yesterday: 84 °F (at 4:00 AM)
Average temperature yesterday: 97 °F

Past Weeks' High & Low Weather Summary

 TemperatureHumidityPressure
High115 °F (May 22, 2:00 PM)49% (May 23, 1:00 AM)29.86 "Hg (May 23, 1:00 AM)
Low75 °F (May 18, 4:00 AM)5% (May 20, 2:00 PM)29.59 "Hg (May 22, 4:00 PM)
Average93 °F18%29.72 "Hg
* Reported May 15 11:00 AM — May 30 11:00 AM, Qatif, Weather by CustomWeather, © 2015

Note: Actual official high and low records may vary slightly from our data, if they occured in-between our weather recording intervals... More about our weather records

Advertising

Qatif weather history for previous 24 hours

 ConditionsComfort  
Time TempWeatherWind HumidityBarometerVisibility
11:00 AM
Sat, May 30
106 °FSunny.5 mph13%29.71 "Hg10 mi
10:00 AM102 °FSunny.6 mph16%29.74 "Hg10 mi
9:00 AM97 °FSunny.3 mph23%29.71 "Hg10 mi
8:00 AM91 °FSunny.2 mph28%29.71 "Hg10 mi
7:00 AM86 °FSunny.No wind35%29.71 "Hg10 mi
6:00 AM86 °FSunny.No wind38%29.68 "Hg10 mi
5:00 AM79 °FSunny.No wind48%29.68 "Hg10 mi
4:00 AM79 °FClear.No wind48%29.65 "Hg10 mi
3:00 AM79 °FClear.No wind39%29.65 "Hg10 mi
2:00 AM82 °FClear.3 mph35%29.65 "Hg10 mi
1:00 AM82 °FClear.3 mph37%29.65 "Hg10 mi
12:00 AM84 °FClear.No wind37%29.68 "Hg10 mi
11:00 PM
Fri, May 29
86 °FClear.No wind38%29.68 "Hg10 mi
10:00 PM88 °FClear.No wind35%29.68 "Hg10 mi
9:00 PM90 °FClear.3 mph31%29.68 "Hg10 mi
8:00 PM93 °FClear.7 mph28%29.65 "Hg10 mi
7:00 PM97 °FClear.8 mph19%29.65 "Hg10 mi
6:00 PM100 °FSunny.12 mph16%29.62 "Hg10 mi
5:00 PM108 °FSunny.18 mph8%29.62 "Hg10 mi
4:00 PM109 °FSunny.18 mph8%29.62 "Hg10 mi
3:00 PM111 °FSunny.20 mph7%29.62 "Hg10 mi
2:00 PM111 °FSunny.20 mph8%29.62 "Hg10 mi
1:00 PM113 °FSunny.21 mph6%29.62 "Hg10 mi
12:00 PM111 °FSunny.21 mph7%29.65 "Hg10 mi
Weather by CustomWeather, © 2015

See weather overviewHow to use our weather pages